軌道要素
Epoch 2016 June 21.0 TT = JDT 2457560.5
T 2016 June 11.01210 TT MPCW
q 2.5183824 (2000.0) P Q
n 0.13465008 Peri. 255.73631 -0.00442195 -0.99994435
a 3.7699158 Node 194.52721 +0.93156478 -0.00063711
e 0.3319791 Incl. 2.18826 +0.36354849 -0.01053008
P 7.32
From 419 observations 1929 Nov. 27-2017 Mar. 5, mean residual 0".8.
Nongravitational parameters A1 = -0.36, A2 = +0.0177.
|